[Date Prev][Date Next][Thread Prev][Thread Next][Date Index][Thread Index]

[jamsat-news:1276] jas2info #189



========================   最新情報   ==============================

        Last updated :Fri.26-May.-2000  19:10 (JST) #189

====================================================================
   
  1)アマチュア通信衛星情報 FOシリーズの軌道要素、テレメトリ、
   QSOの状況等をまとめてみました.
   
   FO−29の5月26日(金)のテレメトリはJARLのホームページの
  運用予定のとうり10:53(JST)のパスではアナログ系運用になって
  おりました.CW信号でテレメトリを10:54〜11:11(JST)に
  受信できました。
  AS18631C1   26May2000
  10:54-11:07(JST)
  Freq. 435.805-787MHz  CW
                                                     91 9F 7B BD B9 BB BE B8 
 HI HI AE C7 88 55 18 47 FF 0D 00 2E 49 65 57 5D 91 8F 9C 7E BD B9 BB BE B8 
 HI HI AE 07 88 55 1D 47 FF 0D 00 2E 61 40             A0 84 BD B9 BB BE B8 
 HI HI AE 07 88 55 02 47 FF 0D 00 2E 4A 6D 5A 5A 91 8F 9D 94 BD B9 BB BE B8
 HI HI AE C7 88 55 07 47 FF 0D 00 2E 4E 74 64 54 93 91 9F 8C BD B9 BB BE B9 
 HI HI AE C7 88 55 10 47 FF 0D 00 2E                05 9C 85 BD B9 BB BE B9   
 HI HI AE 07 88 55 15 48 1E 0D 00 2E 5B 72 70 50 94 93 A1 89 BD B9 BB BE B9 
 HI HI AE 07 88 55 1B 48 FF 0D 00 2E 5D 4A 75 4E 95 93 B0 9C BD B9 BB BD B8 
 HI HI AE 07 88 55 1F 48 FF 0D 00 2E 58 6C 77 60 93 90 B0 8D BD B8 BA BE B9 
 HI HI AE C7 88 55 04 48 FF 0D 00 2E 57 60 74 60 92 90 9E 83 BD B8 BA BD B9 
 HI HI AE 07 88 55 0A 48 FF 0D 00 2E 7E 62 84 45 94 92 B0 86 BD B8 BA BD B9 
 HI HI AE C7 88 55 0F 48 FF 0D 00 2E 4E 7C 6F 4F 95 92 B0 9E BD B8 BA BD B9 
 HI HI AE 07 88 55 13 48 0A 0D 00 2E 8C 60 85 46 94 91 B0 90 BD B8 BA BD B8 
 HI HI AE C7 88 55 19 48 FF 0D 00 2E 43 92 79 55 94 91 B0 95 BD B8 BA BD B8
 HI HI AE 07 88 55 03 48 FF 0D 00 2E 39 95 77 49 94 91 B0 95 BC B8 BA BD B9 
 HI HI AE C7 88 55 08 48 FF 0D 00 2E A6 81 7C 61 93 91 B0 7C BC B7 B9 BC B9 
 HI HI AE 07 88 55 0E 48 FF 0D 00 2E 3C 86 8A 43 96 92 B0 8F BC B8 BA BD B9 
 HI HI AE 07 88 55 13 48 FF 0D 00 2E 9A A3 71 50 94 92 A0 83 BC B7 B9 BC B9 
 HI HI AE C7 88 55 18 48 FF 0D 00 2E 4A 76 89 60 92 91 A1 73 BC B7 B9 BC B9 
 HI HI AE C7 88 55 05 48 FF 0D 00 2E 82 B7 6B 60 93 90 B0 A6 BC B7 B9 BC B9 
 HI HI AE C7 88 55 02 48 FF 0D 00 2E 60 70 8F 60 93 91 B0 72 BC B7 B9 BC B9 
 HI HI AE 07 88 55 08 48 FF 1A 00 2E 60 B7 71 4E 94 92 B0 8B BC B7 B8 BC B9 

 AS18618C1   25May2000
 11:55-12:05(JST)

 HI HI AE C7 88 55 15 47 FF 0D 00 2E 2A 70 8B 40 94 91 B0 85 BB B7 BA BC B8 
 HI HI AE C7 88 55 1A 47 FF 0D 00 2E  8 34 8D 60 93 90 B0 92 BA B7 BA BC B8 
 HI HI AE C7 88 55 1F 47 FF 0D 00 2E 2B 5E 8C 60 92 90 B0 69 BA B7 BA BB B8 
 HI HI AE C7 88 55 04 47 FF 0D 00 2E 80 3A 89 60 92 90 B0 8A BA B7 BA BB B8 
 HI HI AE C7 88 55 0A 47 FF 0D 00 2E 30 48 8A 60 92 66 B0 67 BA B7 BA BB B8 
 HI HI AE C7 88 55 0F 47 FF 0D 00 2E 6E 46 7D 60 92 90 B0 82 BA B7 BA BB B9 
 HI HI AE C7 88 55 14 47 FF 0D 00 2E 37 35 88 60 92 90 B0 85 BA B6 BA BB B9 

 AS18591C1  23May2000
 11:58- 12:09(JST)
                                                              BB B9 BB BC B8 
 HI HI AE C7 88 51 14 40 FF 0D 
 HI HI AE 07 88 51 03 40 0A 0D 00 2E 2D 38 80 60 93 90 B0 75 BB B8 BA BB B8 
 HI HI AE C7 88 51 07 40 FF 0D 00 2E A2 49 89 60 93 90 9E 78 BD B8 BA BC B8 
 HI HI AE C7 88 51 0E 40 FF 0D 00 2E 2E 76 80 60 92 91 9F 65 BA B8 BA BB B8 
 HI HI AE C7 88 51 13 40 FF 1E 00 2E 93 3A 8A 60 92 91 A0 97 BB B8 BA BB B8 
 HI HI AE C7 88 51 18 40 FF 0D 00 2E 37 65 82 5F 93 92 A0 8F BA B7 BA BB B8 
 HI HI AE C7 88 51 1D 40 FF 0D 00 2E 80 3B 83 60 94 92 A1 77 BA B7 BA BB B8 
 HI HI AE C7 88 51 02 40 FF 0D 00 2E 3F 4C 82 5F 93 92 A1 79 BA B7 BA BB B8 
 HI HI AE C7 88 51 06 40 FF 0D 00 2E 6A 45 80 60 92 92 A0 6B BA B7 B9 BB B8 
 HI HI AE C7 88 51 0D 40 FF 0D 00 2E 47 34 81 60 92 92 A0 

 AS18577C1  22May2000
 11:10-11:17(JST)
                                     7C 3D 75 4C 95 90 B0 81 BB BA BC BB B9 
 HI HI AE C7 88 55 01 3E 0A 0D 00 2E 74 A8 78 4C 94 91 B0 76 BB BA BC BA B9 
 HI HI AE C7 88 55 06 3E 05 0D 00 2E 65 33 7F 61 94 91 B0 80 BA BA BB BA B9   
 HI HI AE C7 88 55 0B 3E FF 0D 00 2E 68 31 7B 61 94 91 B0 85 BB BA BB BA B9
 HI HI AE C7 88 55 10 3E FF 0D 00 2E 6D 2E 84 61 94 91 B0 75 BB BA BB BA B9
 HI HI AE C7 88 55 1A 3E FF 0D 00 2E 63 94 7C 48 94 91 B0 73 BA BA BB BA B9 
 HI HI AE 07 88 55 19 3E FF 0D 00 2E 73 29 88 42 94 92 B0 7F BA BA BB BA B9 
 HI HI AE C7 88 55 1F 3E FF 0D 00 2E 57 7E 7F 60 94 92 A1 6F BA B9 BB BA B9 
 HI HI AE C7 88 55 03 3E 0A 0D 00 2E 7B 29 89 60 92 90 9F 7B BA B9 BB BA B9 
 HI HI AE C7 88 55 09 3E FF 0D 00 2E 51 64 87 60 93 91 B0 80 BA B9 BA BA B9 
 HI HI AE C7 88 55 0E 3E FF 0D 00 2E 89 2E 88 45 93 92 B0 70 BA B9 BB BA B9 
 HI HI AE C7 88 55 13 3E FF 0D 00 2E 50 4A 8A 60 92 90 B0 70 B9 B9 BA BA B9 
 HI HI AE C7 88 55 18 3E 0A 0D 00 2E 74 35 81 61 93 91 B0 82 B9 B9 BA B9 B9 

 ------------------------ FO-29の軌道要素 ------------------------------        
 
  ■ 軌道要素1:「jamsat−keps:996」より         
            SB KEPS @ AMSAT  $ORB00147.N
            2Line Orbital Elements 00147.AMSAT

 HR AMSAT ORBITAL ELEMENTS FOR AMATEUR SATELLITES IN NASA FORMAT
 FROM WA5QGD FORT WORTH,TX May 26, 2000
 SEND SUBSCRIBE/UNSUBSCRIBE TO majordomo@amsat.org ONLY
 BID: ORB00147.N

  DECODE 2-LINE ELSETS WITH THE FOLLOWING KEY:
  1 AAAAAU 00  0  0 BBBBB.BBBBBBBB  .CCCCCCCC  00000-0  00000-0 0  DDDZ
  2 AAAAA EEE.EEEE FFF.FFFF GGGGGGG HHH.HHHH III.IIII JJ.JJJJJJJJKKKKKZ
  KEY: A-CATALOGNUM B-EPOCHTIME C-DECAY D-ELSETNUM E-INCLINATION F-RAAN
  G-ECCENTRICITY H-ARGPERIGEE I-MNANOM J-MNMOTION K-ORBITNUM Z-CHECKSUM

  TO ALL RADIO AMATEURS BT

 FO-29
 1 24278U 96046B   00146.78152597  .00000040  00000-0  80422-4 0  3328
 2 24278  98.5885  57.5780 0350493 285.0146  71.2457 13.52723113186267

 ■ 軌道要素2:「jamsat−keps:997」より                    
         SB KEPS @ AMSAT  $ORB00147.O
         Orbital Elements  00147.OSCAR

 HR AMSAT ORBITAL ELEMENTS FOR OSCAR SATELLITES
 FROM WA5QGD FORT WORTH,TX May 26, 2000
 SEND SUBSCRIBE/UNSUBSCRIBE TO majordomo@amsat.org ONLY
 BID: ORB00147.O
 TO ALL RADIO AMATEURS BT
 
  Satellite: FO-29
 Catalog number: 24278
 Epoch time:      00146.78152597
 Element set:     332
 Inclination:       98.5885 deg
 RA of node:        57.5780 deg
 Eccentricity:    0.0350493
 Arg of perigee:   285.0146 deg
 Mean anomaly:      71.2457 deg
 Mean motion:   13.52723113 rev/day
 Decay rate:        4.0e-07 rev/day^2
 Epoch rev:           18626
 Checksum:              314

-------------------  FO-29(JAS-2)のテレメトリに関する情報  ----------------------
 
 2)5月26日(金)のテレメトリの最後の行の変換例です.

  AS18631C1   26May2000
  10:54-11:07(JST)
  Freq. 435.805-.787MHz  CW                                                   
 
 HI HI AE 07 88 55 08 48 FF 1A 00 2E 60 B7 71 4E 94 92 B0 8B BC B7 B8 BC B9   
  
 テレメトリ  	内   容	    	換算値	単 位  
 3C	磁気センサーZ軸=	47058.8	[nT]
 3D	磁気センサX軸  =	89705.9	[nT]
 4A	太陽電池発生電流=	 1107.9	[mA]
 4B	B充放電電流	=	 -471.2	[mA]
 4C	B端子電圧	=	   15.9	[V]
 4D	B中間端子電圧	=	    7.0	[V]
 5A	バス電圧	     =	   17.3	[V]
 5B	JTA送信電力	=	  805.4	[mW]
 5C 	構体温度1	=	    8.9	[℃]
 5D	構体温度2	=	   10.8	[℃]
 6A	構体温度3	=	   10.4	[℃]
 6B	構体温度4	=	    8.9	[℃]
 6C	Bセル温度	=	   10.0	[℃]

 * OSはWindows 2000,Office 2000 にて計算処理.
 
 ===========================  FO-29(ふじ3号)のQSO情報等 ======================
   
 3) [jamsat-bb:5316] SSTV において宮川 ヒロシ氏が SSTVについて投稿されていましたので
   転載させて頂きました.

miyahi> 先頃 JE2VVN 井上さんからレポートありましたJH2ESW局と、
miyahi> FO−29のオービットでSSTVによる交信が出来ました。
miyahi> 
miyahi> ところどころQSB?による乱れがありますが、送られた
miyahi> コールサインや花の画像がかなり良好に受信できました。
miyahi> 当局からの画像も565のレポート頂きました。
miyahi> 
miyahi> JH2ESW局は引き続きFOー20,29のオービットでQRV
miyahi> されています。アップリンクは145.950Mhz、モードS2です。
miyahi>                    de JA2EJ 宮川
miyahi> 
miyahi>                                         -------------------------
miyahi>                                              HIROSHI MIYAGAWA 
miyahi>                                          miyahi@wa2.so-net.ne.jp
 
 ====================================================================================
   4)JARL のホームページに運用予定が記載されていましたのでご紹介します.
       ( http://www.jarl.or.jp/Japanese/3_Fuji/new/uy.htm )

        ■ ふじ3号/FOー29/JAS-2 ■  
   
     *** 運用予定について ***   

 05月08日 〜 06月08日 アナログ系運用

 ※5月8日(月)から14日(日)迄,「デジタル系1200bpsメールボックス運用」でしたが
  地上混信が余りにも酷いため,デジタル系に切り換えることが出来ませんので,予定を変更して
  アナログ系運用と致します。

 *なお,運用予定は都合により変更することがありますのでご了承願います。

 照会先 : lab@jarl.or.jp

 最新の情報はテレホンサービス(03−3942−1000)をお聞きください。  
 以後の運用につきましては5月下旬にお知らせいたします。

-----------------------    FO−20(JAS-1b)道要素   -------------------------
  5)
  ■ 軌道要素1 :出典はFO-29「ふじ3号」に同じ.
  
  FO-20
 1 20480U 90013C   00146.85065156 -.00000004  00000-0  54478-4 0  2286
 2 20480  99.0504 281.4405 0540989 105.8164 260.3245 12.83273803482415
 
  ■ 軌道要素2 :出典はFO−29「ふじ3号」に同じ.
               
  Satellite: FO-20
 Catalog number: 20480
 Epoch time:      00146.85065156
 Element set:     228
 Inclination:       99.0504 deg
 RA of node:       281.4405 deg
 Eccentricity:    0.0540989
 Arg of perigee:   105.8164 deg
 Mean anomaly:     260.3245 deg
 Mean motion:   12.83273803 rev/day
 Decay rate:       -4.0e-08 rev/day^2
 Epoch rev:           48241
 Checksum:              281

 --------------------------------------------------------------------------------
 
         ■ ふじ2号/FO−20/JAS-1b ■      
            
          「ふじ2号」 現況                                                                                  
             
   JAS-1b(ふじ2号)のCWテレメトリ信号に,1997年10月12日12時(JST)の
 日本上空通過時,3桁の数字が繰り返されるはずが3個の長音の繰り返しとなっているという
 異常が発見されました。この不具合は次の通過時からは回復していましたが13日15時20分の
 通過時に再び観測されました。現在はA0の送信が続いています。衛星のアナログ系中継モード
 動作は異常が無く,正常時のテレメトリ内容からは衛星の動作に異常は認められません。従って,
 直ちに衛星のミッションに影響することは無いと予想されますので,当面はアナログ系中継
 モードを継続します。衛星は既に打ち上げてから7年8ヶ月を経ておりますので,今後は監視を
 強化する予定です。アマチュア各位のレポートをお待ちします。
 -------------------------------------------------------------------------------- 
  1997年10月14日 00時35分 確認のテレメトリ音 151 KB (A0) 
  1997年10月14日 11時10分 確認のテレメトリ音 216 KB (異常キーイング) 

  以上 JARLのホ−ムページの http://www.jarl.or.jp/Japanese/3_Fuji/new/fuji.htm
                                           
   =============   JAS-2 (ふじ3号)と現在までの情報   ===========
  
  A.電話によるふじ3号の運用情報
      社団法人日本アマチュア連盟によるサービス
           TEL .   03− 3942 − 1000
  B.アマチュア無線FAXサービス
      JARLによるふじ3号の軌道情報(オービットカレンダー)
         FAX No.  03− 3233 −0055
  C.WWWブラウザで情報を簡単に見れる人のためにJAS−2
     ふじ3号の衛星としての運用されるまでの名前)の概要、打ち上げ
     までの状況、運用中における状況を説明したホームページを紹介し
     ておきます.
     社団法人日本アマチュア無線連盟(JARL)のホームページ

          http://www.jarl.or.jp/Japanese/3_Fuji/jasmenu.htm
 
     宇宙開発事業団(NASDA)ホームページ 
          http://www.nasda.go.jp/
         打上げ衛星 :地球観測プラットフォーム技術衛星(ADEOS) 
                       アマチュア衛星3号(JAS-2)
          http://yyy.tksc.nasda.go.jp/Home/Press/Press-j/jas-2_j.html        

  D.JAMSATによる軌道情報の活用
        JAMSATのホームページまたはjamsat−kepsの軌道要素より
      衛星の軌道情報を得る.
     JAMSATホームページ
               URL    http://www.jamsat.or.jp
       上記ホームページでは各地で行われるアマチュア通信衛星に関する
      ミューティングのお知らせや世界のアマチュア衛星に関する情報が
      満載されています.
 ========================================================================  
     JAMSATのメンバーのご協力によりJH6MME(高山 秀造)が
    執筆・編集を担当しております.ご指摘の意見、疑問やこのようにしたら
    というアイデアがありましたら小さなことでもかまいませんので気軽に下
    記アドレスまでご連絡ください.jamsat−newsからjas2
    infoへの転載をJH4PHW局坂井さんに担当して頂いております.  
                  E-mail : jh6mme@jamsat.or.jp : jh4phw@jamsat.or.jp
 ===============================   END  ===============================